Temp
7 6 5 4 4 3 2 5 4 7 5 5 3 1 2 2 -0 -1 -2 -3 -3 -3 -4 -3 -4 -4 -3 -3 -3 -3 -4 -5 -5 -4 -3 -2 -2 -2 -2 -3 -3 -3 -3 -3
3 6 4 3 3 2 3 3 4 3 3 -1 -1 -1 -1 -0 -2 -2 -3 -3 -3 -3 -4 -4 -3 -4 -4 -4 -4 -5 -5 -5 -3 -3 -3 -3 -3 -3 -3 -3 -3 -3 -3 -4
4 4 4 3 2 2 2 2 2 2 2 -0 0 -0 -1 -1 -2 -2 -3 -3 -4 -4 -4 -4 -4 -4 -5 -5 -5 -5 -5 -4 -4 -4 -4 -4 -4 -4 -4 -4 -4 -4 -4 -5
3 3 3 2 -3 -2 -0 -1 -2 -1 -0 -2 -2 -3 -3 -3 -3 -3 -3 -3 -4 -4 -4 -5 -5 -5 -6 -6 -5 -5 -5 -4 -4 -4 -4 -5 -5 -5 -5 -5 -5 -5 -6 -6
2 3 5 4 -0 -0 0 2 -1 -1 -2 -3 -3 -3 -3 -3 -3 -3 -3 -3 -4 -4 -5 -5 -5 -5 -6 -5 -5 -5 -5 -5 -5 -5 -5 -5 -5 -6 -6 -6 -6 -6 -6 -7
1 2 2 3 1 -1 -1 1 -1 -3 -2 -2 -3 -0 2 -3 -3 -3 -4 -4 -5 -5 -5 -5 -5 -5 -6 -6 -5 -5 -5 -5 -6 -6 -6 -6 -6 -6 -6 -6 -6 -6 -7 -8
2 1 2 2 -1 -2 1 2 -0 -1 -1 -3 -3 -1 -2 -3 -4 -4 -5 -5 -5 -5 -5 -5 -5 -6 -6 -6 -6 -6 -6 -6 -6 -6 -6 -6 -6 -7 -7 -7 -7 -8 -8 -8
-1 -2 -1 -0 -1 0 1 1 -1 -1 -1 -1 -3 -3 -4 -4 -5 -5 -5 -5 -5 -5 -6 -6 -6 -6 -6 -6 -6 -6 -6 -7 -7 -7 -7 -7 -7 -7 -8 -8 -8 -9 -9 -9
2 3 2 -1 1 -0 -1 -2 -2 -1 -1 -1 -3 -4 -4 -4 -4 -5 -5 -5 -5 -6 -6 -6 -6 -6 -6 -7 -7 -7 -7 -7 -7 -7 -7 -8 -8 -8 -9 -9 -9 -10 -10 -10
-1 3 1 -2 -2 -2 -2 -2 -2 -2 -3 -3 -3 -3 -4 -4 -4 -4 -5 -5 -5 -6 -6 -7 -7 -7 -7 -7 -8 -8 -8 -8 -8 -8 -9 -9 -9 -9 -10 -10 -10 -10 -10 -11
-1 -1 -2 -1 -2 -2 -2 -3 -2 -2 -3 -4 -3 -4 -4 -4 -4 -5 -5 -6 -6 -7 -7 -7 -7 -8 -7 -8 -8 -9 -9 -9 -9 -9 -10 -10 -10 -10 -10 -10 -10 -11 -11 -12
-1 -2 -3 -3 -3 -3 -4 -4 -4 -3 -4 -4 -4 -4 -4 -4 -5 -6 -6 -7 -8 -8 -8 -9 -8 -8 -8 -8 -9 -10 -10 -10 -10 -10 -10 -10 -10 -10 -10 -10 -11 -13 -12 -12
-3 -5 -5 -4 -4 -4 -5 -5 -4 -5 -5 -5 -4 -4 -5 -5 -6 -6 -7 -8 -9 -9 -9 -9 -9 -9 -9 -9 -9 -9 -10 -11 -11 -11 -10 -10 -10 -11 -10 -9 -10 -10 -11 -11
-7 -7 -5 -5 -6 -5 -6 -6 -6 -5 -5 -5 -5 -5 -5 -6 -7 -8 -8 -9 -9 -9 -10 -9 -9 -10 -10 -10 -10 -9 -10 -10 -10 -11 -11 -11 -11 -11 -11 -12 -13 -11 -11 -11
-9 -9 -9 -8 -7 -7 -7 -7 -7 -7 -7 -7 -7 -8 -7 -8 -9 -10 -10 -10 -10 -10 -10 -10 -10 -11 -11 -11 -11 -11 -11 -11 -11 -11 -11 -11 -12 -13 -13 -13 -14 -13 -13 -13
-10 -10 -10 -9 -8 -9 -9 -8 -9 -9 -9 -9 -10 -10 -10 -9 -10 -10 -12 -13 -13 -12 -12 -12 -12 -12 -12 -12 -12 -13 -13 -13 -13 -13 -14 -13 -13 -15 -14 -14 -14 -14 -14 -14
-13 -13 -13 -11 -11 -11 -12 -12 -11 -11 -11 -11 -12 -12 -12 -13 -13 -13 -13 -14 -14 -14 -14 -14 -14 -14 -14 -14 -14 -14 -14 -14 -15 -16 -16 -15 -16 -16 -15 -15 -15 -15 -14 -14
-14 -14 -14 -13 -13 -13 -13 -13 -13 -13 -13 -14 -14 -14 -14 -14 -14 -15 -15 -15 -15 -15 -15 -15 -15 -15 -16 -15 -15 -15 -15 -15 -15 -16 -16 -16 -17 -16 -16 -16 -16 -16 -15 -14
-15 -15 -15 -15 -15 -15 -15 -15 -15 -15 -15 -15 -16 -16 -16 -16 -16 -17 -16 -16 -16 -16 -16 -17 -17 -18 -17 -17 -17 -17 -17 -17 -17 -16 -16 -17 -17 -16 -17 -17 -17 -16 -15 -15
-16 -16 -17 -17 -16 -16 -16 -17 -17 -17 -17 -17 -17 -17 -17 -18 -18 -18 -18 -18 -18 -18 -18 -18 -18 -18 -18 -18 -18 -18 -17 -17 -17 -18 -18 -18 -18 -18 -18 -17 -17 -16 -16 -16
-18 -18 -18 -18 -18 -18 -18 -18 -18 -18 -18 -18 -18 -19 -19 -19 -19 -19 -19 -20 -19 -19 -20 -20 -20 -20 -19 -18 -18 -18 -18 -18 -18 -19 -19 -18 -18 -18 -18 -18 -17 -17 -17 -17
-19 -19 -19 -19 -20 -20 -19 -19 -19 -20 -20 -20 -20 -21 -21 -21 -21 -21 -21 -21 -21 -21 -21 -21 -21 -20 -19 -18 -19 -19 -19 -19 -19 -19 -19 -19 -19 -19 -19 -18 -18 -18 -18 -18
-19 -19 -19 -20 -21 -21 -20 -20 -20 -21 -21 -21 -22 -22 -22 -22 -22 -23 -22 -21 -22 -22 -21 -21 -22 -20 -20 -19 -20 -20 -20 -20 -20 -20 -20 -20 -20 -20 -20 -20 -20 -19 -19 -18
-20 -20 -20 -20 -20 -21 -21 -21 -21 -22 -22 -22 -22 -22 -22 -23 -22 -23 -23 -22 -22 -23 -22 -22 -22 -21 -21 -21 -21 -21 -21 -21 -21 -21 -21 -21 -21 -21 -20 -20 -20 -19 -19 -18
-21 -21 -21 -21 -21 -22 -23 -22 -22 -22 -22 -23 -23 -23 -23 -23 -23 -23 -23 -23 -23 -23 -23 -23 -23 -23 -23 -22 -22 -22 -22 -22 -22 -23 -23 -22 -22 -21 -21 -20 -20 -19 -18 -18
-22 -22 -22 -23 -23 -23 -24 -23 -23 -23 -23 -23 -24 -23 -23 -24 -24 -24 -24 -24 -24 -24 -23 -23 -23 -24 -24 -23 -23 -23 -23 -23 -23 -23 -22 -22 -22 -22 -21 -20 -20 -19 -18 -18
-22 -23 -23 -23 -23 -23 -23 -24 -24 -24 -24 -24 -24 -24 -24 -24 -23 -24 -24 -23 -23 -23 -23 -23 -23 -24 -24 -24 -23 -23 -23 -23 -23 -23 -24 -23 -23 -22 -21 -20 -19 -19 -18 -17
Height
1496 1498 1501 1500 1499 1504 1508 1494 1495 1470 1478 1481 1483 1484 1481 1479 1480 1481 1482 1484 1486 1487 1490 1490 1493 1495 1499 1502 1505 1507 1509 1512 1516 1518 1519 1519 1519 1519 1519 1518 1518 1518 1517 1517
1501 1494 1496 1498 1495 1495 1494 1492 1488 1485 1481 1488 1487 1484 1480 1478 1478 1479 1480 1481 1484 1487 1489 1490 1493 1496 1499 1502 1504 1506 1510 1513 1515 1515 1515 1515 1515 1515 1514 1514 1514 1513 1512 1512
1494 1495 1494 1489 1488 1488 1487 1489 1488 1485 1484 1487 1482 1481 1479 1477 1476 1477 1478 1480 1483 1486 1489 1493 1493 1497 1500 1502 1504 1507 1510 1510 1511 1511 1511 1511 1511 1510 1510 1509 1509 1508 1506 1505
1500 1498 1493 1484 1493 1493 1490 1489 1491 1490 1487 1486 1485 1482 1479 1477 1477 1478 1478 1480 1484 1486 1489 1491 1493 1496 1499 1502 1504 1505 1506 1506 1507 1507 1507 1507 1507 1506 1505 1504 1503 1501 1501 1500
1500 1490 1477 1478 1488 1488 1486 1481 1485 1484 1485 1485 1484 1482 1480 1478 1478 1478 1478 1480 1483 1486 1489 1491 1492 1495 1498 1501 1501 1501 1502 1502 1502 1502 1502 1502 1501 1500 1499 1498 1498 1498 1497 1496
1505 1497 1484 1477 1484 1487 1489 1480 1481 1483 1482 1482 1483 1478 1472 1476 1477 1478 1479 1481 1483 1485 1488 1490 1492 1494 1496 1497 1498 1497 1498 1498 1497 1496 1497 1496 1496 1496 1494 1494 1493 1493 1493 1492
1497 1496 1482 1479 1485 1488 1484 1478 1479 1479 1477 1478 1479 1475 1474 1475 1477 1478 1479 1481 1482 1484 1487 1490 1491 1492 1493 1493 1493 1493 1493 1492 1491 1491 1492 1491 1491 1491 1490 1489 1489 1488 1488 1487
1504 1505 1494 1481 1485 1484 1477 1476 1476 1473 1473 1472 1471 1472 1472 1473 1475 1476 1478 1480 1481 1484 1485 1487 1487 1489 1489 1488 1489 1489 1488 1488 1487 1486 1487 1487 1487 1486 1486 1485 1484 1484 1483 1481
1487 1475 1476 1479 1476 1475 1475 1474 1473 1470 1468 1466 1466 1468 1469 1471 1473 1474 1475 1477 1478 1480 1482 1483 1484 1484 1484 1485 1485 1484 1484 1483 1482 1482 1482 1482 1482 1482 1482 1481 1480 1479 1477 1476
1485 1470 1474 1474 1474 1472 1471 1470 1468 1465 1462 1462 1462 1464 1466 1468 1469 1471 1472 1473 1475 1477 1477 1479 1480 1480 1480 1480 1479 1479 1479 1478 1478 1478 1478 1478 1478 1477 1476 1475 1475 1473 1473 1472
1476 1472 1471 1469 1470 1470 1468 1466 1463 1460 1458 1458 1460 1461 1462 1464 1466 1468 1470 1471 1473 1473 1474 1475 1475 1474 1474 1474 1474 1474 1474 1474 1473 1473 1473 1473 1473 1472 1471 1470 1470 1469 1469 1468
1468 1471 1470 1469 1469 1467 1464 1460 1458 1455 1453 1455 1456 1457 1459 1460 1462 1464 1466 1468 1469 1470 1470 1471 1471 1469 1469 1469 1469 1469 1469 1469 1469 1469 1469 1469 1468 1467 1466 1464 1463 1464 1464 1464
1473 1471 1468 1466 1464 1462 1459 1455 1452 1450 1449 1450 1453 1454 1455 1456 1457 1459 1461 1463 1464 1465 1465 1466 1465 1465 1465 1465 1465 1465 1466 1466 1465 1465 1465 1464 1463 1462 1460 1460 1458 1457 1457 1456
1471 1468 1464 1463 1461 1458 1454 1451 1448 1446 1445 1447 1449 1450 1451 1452 1454 1456 1457 1459 1459 1459 1460 1460 1461 1461 1461 1461 1462 1462 1462 1462 1462 1461 1460 1459 1458 1456 1455 1453 1451 1451 1451 1450
1466 1465 1463 1461 1458 1454 1450 1447 1446 1445 1443 1443 1444 1446 1447 1448 1450 1453 1454 1454 1454 1454 1455 1456 1456 1456 1456 1457 1457 1457 1457 1457 1456 1455 1454 1453 1452 1451 1449 1448 1447 1445 1444 1443
1463 1462 1461 1458 1454 1452 1449 1446 1445 1444 1444 1444 1445 1445 1443 1445 1446 1448 1450 1450 1451 1450 1450 1450 1450 1450 1449 1450 1451 1452 1451 1451 1450 1448 1447 1446 1445 1445 1444 1442 1441 1440 1438 1436
1463 1460 1458 1456 1454 1453 1451 1449 1447 1445 1445 1445 1445 1445 1444 1444 1445 1446 1446 1446 1446 1447 1445 1445 1446 1445 1444 1444 1445 1445 1445 1444 1444 1442 1441 1439 1438 1437 1437 1436 1434 1432 1430 1429
1469 1466 1462 1459 1457 1456 1453 1451 1449 1447 1446 1445 1444 1444 1443 1443 1443 1443 1442 1441 1441 1441 1440 1440 1441 1440 1440 1440 1439 1439 1439 1438 1437 1435 1434 1433 1433 1432 1430 1428 1425 1422 1419 1417
1469 1466 1462 1460 1458 1456 1454 1452 1450 1448 1447 1445 1444 1443 1443 1442 1441 1440 1439 1438 1437 1437 1437 1436 1436 1435 1435 1435 1434 1433 1432 1431 1430 1429 1428 1426 1424 1422 1420 1419 1416 1413 1410 1406
1469 1466 1464 1461 1458 1456 1454 1452 1450 1449 1447 1445 1443 1442 1441 1439 1438 1437 1436 1435 1434 1433 1432 1432 1431 1430 1429 1429 1428 1428 1427 1425 1424 1423 1421 1419 1415 1412 1410 1407 1404 1402 1400 1397
1469 1466 1464 1461 1459 1457 1454 1452 1450 1448 1445 1444 1442 1440 1438 1437 1435 1433 1432 1431 1430 1430 1429 1428 1426 1425 1424 1424 1423 1421 1420 1418 1417 1415 1412 1409 1405 1402 1400 1398 1395 1392 1390 1388
1467 1465 1462 1461 1458 1456 1453 1450 1448 1447 1444 1442 1440 1438 1436 1434 1432 1431 1430 1429 1427 1426 1425 1424 1422 1421 1421 1419 1417 1415 1413 1411 1408 1405 1402 1400 1397 1394 1392 1389 1387 1384 1381 1379
1466 1463 1461 1458 1456 1453 1451 1449 1447 1445 1442 1440 1438 1436 1434 1432 1430 1429 1427 1426 1424 1422 1422 1420 1418 1418 1417 1411 1410 1407 1405 1402 1400 1397 1395 1392 1389 1386 1384 1381 1378 1376 1374 1372
1463 1461 1458 1455 1453 1450 1448 1446 1444 1442 1440 1438 1436 1434 1432 1429 1427 1426 1424 1422 1420 1419 1417 1414 1413 1412 1411 1405 1402 1400 1397 1394 1392 1390 1387 1384 1381 1378 1375 1373 1371 1369 1367 1364
1459 1456 1454 1451 1448 1447 1445 1443 1440 1439 1436 1434 1432 1430 1428 1426 1424 1421 1419 1417 1415 1413 1410 1409 1407 1404 1401 1398 1396 1393 1390 1388 1385 1383 1379 1376 1373 1370 1368 1365 1363 1360 1358 1356
1455 1452 1449 1447 1445 1443 1441 1439 1437 1435 1433 1431 1429 1426 1424 1422 1419 1417 1414 1412 1410 1407 1405 1403 1400 1398 1396 1393 1390 1387 1384 1381 1379 1376 1373 1369 1366 1363 1360 1357 1355 1353 1351 1348
1451 1449 1445 1443 1441 1439 1437 1437 1434 1432 1429 1427 1424 1422 1420 1418 1415 1412 1410 1407 1404 1402 1399 1397 1395 1393 1390 1387 1384 1381 1378 1375 1372 1369 1366 1363 1360 1357 1354 1351 1349 1347 1344 1341
Wind_Speed
9 9 4 6 9 7 11 13 11 16 16 12 7 4 14 20 22 20 18 15 15 20 23 23 24 24 22 18 15 13 9 7 5 6 7 8 9 11 12 13 13 14 16 17
7 13 10 9 11 12 12 13 15 17 19 4 10 12 10 11 16 19 18 18 19 21 22 23 22 19 17 14 11 9 6 5 6 6 7 9 10 11 12 12 14 15 16 17
5 2 10 10 3 3 3 5 3 7 4 9 9 7 7 8 15 18 19 21 23 23 22 19 18 15 13 10 8 6 6 5 6 7 8 10 10 11 12 13 14 14 15 15
5 6 5 1 2 2 4 4 4 6 8 6 5 1 1 1 7 11 16 20 21 20 19 17 15 12 9 7 5 5 6 7 8 9 10 11 12 13 13 14 14 14 14 15
3 5 12 9 4 4 2 2 6 4 3 5 3 3 4 2 6 11 16 19 19 17 16 14 12 9 7 6 6 7 8 10 11 11 11 11 12 13 14 14 14 15 15 14
2 5 5 3 4 5 3 6 7 6 7 9 5 5 4 7 8 10 13 15 15 12 11 11 10 8 7 8 8 10 11 11 11 12 13 12 13 14 14 15 15 15 14 13
9 7 7 2 10 6 4 1 3 9 14 12 8 10 4 11 13 15 16 16 14 13 11 10 10 10 10 10 11 11 11 12 12 13 13 14 14 14 14 15 15 15 15 14
3 4 7 9 7 5 4 12 13 12 13 19 20 13 11 16 17 17 16 14 12 11 11 9 8 9 9 11 12 13 12 12 13 13 14 14 14 14 14 15 15 16 16 15
7 7 1 9 10 10 16 13 14 20 22 20 17 16 16 17 16 16 14 13 11 10 10 9 10 10 11 13 13 13 13 13 13 13 13 13 13 13 14 14 14 15 15 15
1 10 8 9 17 19 14 15 19 21 21 19 19 19 18 17 17 17 15 13 12 12 11 11 12 12 12 12 12 12 11 11 12 11 11 12 13 14 15 15 15 15 14 14
9 13 16 11 6 19 21 19 21 22 19 21 19 17 17 16 16 15 14 13 13 13 13 13 12 12 13 13 12 11 10 9 10 10 10 11 11 12 14 15 15 15 14 14
7 7 7 13 18 23 24 27 26 23 19 21 21 17 15 15 15 15 16 16 16 14 13 13 12 12 14 12 11 10 9 9 10 10 10 11 12 12 12 14 15 15 16 17
9 13 19 25 26 19 17 23 19 21 26 22 19 19 16 17 17 17 17 15 14 13 12 12 12 13 13 11 12 11 10 10 11 11 11 12 13 14 15 9 14 16 16 17
16 18 16 8 13 22 20 19 17 21 21 21 19 18 16 16 16 16 15 14 14 13 13 12 11 12 12 12 12 13 12 13 13 12 13 14 15 16 16 16 15 14 12 15
5 17 16 19 18 17 16 15 13 12 13 17 16 15 15 13 12 13 13 13 13 12 12 11 11 12 13 13 12 13 14 13 14 15 16 16 16 16 16 16 16 17 17 17
19 9 10 12 14 14 13 10 8 6 6 6 6 8 8 10 11 12 11 10 10 11 12 10 10 12 14 13 13 14 15 15 16 16 16 18 16 16 16 17 18 19 19 19
13 16 19 17 15 12 12 10 8 5 3 3 3 4 5 5 6 8 10 10 10 11 11 10 10 12 14 13 14 15 17 18 18 17 16 16 15 15 17 18 20 21 22 21
13 11 11 11 12 11 11 9 8 6 5 4 3 4 4 5 6 7 9 10 11 11 12 11 10 12 14 14 16 17 18 19 18 17 17 16 15 17 18 20 21 26 34 35
13 12 12 12 11 10 9 9 8 8 7 7 7 7 7 7 8 9 10 10 11 11 11 12 10 12 16 15 15 16 16 15 17 19 19 18 21 25 28 29 33 34 34 33
13 13 13 12 11 10 10 9 10 11 10 10 9 8 8 9 10 11 11 11 10 11 9 9 10 15 17 13 9 11 17 19 18 19 24 29 30 32 31 28 27 29 31 31
13 13 12 11 11 11 11 12 12 12 11 11 11 11 11 11 11 12 11 10 11 8 10 11 12 12 11 7 16 18 14 18 26 28 31 31 28 27 27 27 27 27 28 28
13 13 12 10 11 11 12 12 12 10 9 10 10 9 10 9 10 9 9 10 12 11 11 12 14 13 12 17 17 20 23 27 30 30 26 25 26 27 26 26 26 26 25 24
13 13 13 12 11 11 12 11 11 9 11 11 9 11 12 11 9 10 11 11 11 13 14 15 15 13 14 20 22 27 28 26 25 24 24 24 25 24 24 25 24 23 23 22
14 15 14 14 13 12 12 12 13 12 12 12 11 13 16 14 13 11 13 15 16 14 15 17 13 15 16 23 23 22 22 22 22 23 23 23 23 24 25 24 25 24 24 22
17 17 16 15 14 10 12 15 16 12 13 13 14 18 16 14 16 16 17 19 19 16 17 16 15 15 17 19 21 21 21 21 21 21 23 24 24 24 24 24 23 23 24 24
17 16 15 13 11 12 12 14 12 11 10 14 16 17 16 15 15 17 18 16 16 17 18 19 17 15 18 20 20 20 20 20 21 22 22 21 22 22 22 20 20 20 21 22
16 13 13 13 11 11 10 10 11 12 13 14 17 18 15 21 18 14 15 17 18 19 21 20 18 17 18 20 20 20 20 21 21 21 21 21 21 20 18 16 16 17 18 17
Wind_Direction
283 309 280 253 257 216 212 247 250 281 287 306 327 297 258 260 225 213 202 201 193 181 182 174 169 164 166 167 165 164 148 130 168 219 241 259 268 271 271 272 274 277 281 285
281 273 267 278 264 239 245 253 265 273 281 50 325 313 315 260 211 206 204 202 192 183 173 165 162 160 159 159 150 132 146 192 226 251 268 272 274 274 275 279 282 285 288 289
278 10 315 281 243 209 208 219 265 271 318 322 321 330 322 272 228 206 196 188 179 173 167 164 157 157 150 145 149 171 205 234 263 277 280 279 278 280 281 284 285 287 292 296
283 306 247 54 182 211 244 259 219 277 281 295 293 341 26 167 194 194 190 180 179 176 170 166 157 158 160 173 198 226 256 279 289 290 287 285 284 283 284 288 294 299 299 298
259 249 292 249 196 192 185 263 194 238 220 230 218 289 278 230 196 193 190 186 182 178 172 167 166 176 200 236 255 269 283 290 291 287 287 289 290 292 293 295 295 294 295 293
221 260 266 51 148 137 161 271 187 205 234 224 206 257 261 204 192 178 173 171 165 169 176 185 188 212 245 265 269 278 285 287 291 297 294 292 290 291 292 291 291 292 292 289
246 261 278 279 129 145 245 5 209 251 260 222 220 244 245 188 173 169 166 173 177 180 186 200 227 244 255 265 278 285 289 292 294 293 293 294 294 292 290 290 292 292 291 288
178 236 266 154 133 219 360 308 293 277 260 251 244 241 206 190 186 185 188 194 197 201 208 228 244 253 266 280 286 287 289 288 287 289 290 289 286 287 289 290 290 291 293 293
212 242 272 199 259 284 300 283 281 281 282 269 242 219 201 191 200 205 211 205 207 220 234 248 258 267 272 274 275 278 280 282 283 284 284 283 282 283 283 286 287 289 294 296
250 264 270 280 290 291 292 291 297 290 282 257 220 201 206 210 210 217 213 213 222 231 240 250 256 258 261 266 272 277 279 280 280 279 278 279 281 284 284 287 286 288 290 293
260 280 290 291 309 317 304 296 292 289 271 229 214 219 215 216 222 219 219 223 228 230 235 246 254 264 270 277 279 279 279 278 275 275 276 277 279 282 284 284 283 282 286 294
277 316 271 294 310 307 301 297 290 283 249 217 228 225 227 220 222 224 223 225 228 232 238 245 252 260 267 271 272 274 270 266 269 274 276 281 287 289 283 285 281 273 272 274
293 307 300 298 301 309 313 317 304 282 238 230 229 227 224 222 222 223 225 230 237 245 251 259 265 263 265 269 269 263 260 262 263 266 271 283 286 293 296 276 272 278 281 279
306 303 304 327 311 315 316 315 313 282 240 233 234 229 224 225 227 228 232 236 242 250 257 262 264 264 265 265 267 265 261 267 271 273 283 289 292 294 293 294 294 287 269 272
315 318 298 307 317 321 325 326 307 269 239 220 219 220 217 226 227 235 238 243 248 254 258 256 256 261 262 260 258 262 266 269 274 280 284 285 287 288 288 288 288 287 290 291
335 353 348 350 350 342 343 346 345 328 285 269 238 220 211 219 232 245 251 250 251 256 259 259 257 258 264 264 266 270 272 275 279 283 282 286 283 281 280 281 282 284 287 289
4 5 5 12 13 1 5 9 11 9 354 325 310 303 296 284 276 272 267 263 260 262 265 264 256 258 261 263 267 272 275 278 280 280 276 277 276 275 278 278 279 281 283 286
36 34 29 22 16 13 16 17 20 23 28 24 352 324 305 288 272 268 271 277 279 277 274 275 272 270 271 273 280 282 284 285 282 279 280 280 281 286 283 278 275 280 286 290
20 19 17 17 15 10 8 8 6 1 352 344 335 330 327 319 311 304 302 299 295 292 286 284 280 265 272 274 275 281 281 280 282 283 281 282 280 283 285 287 288 289 289 290
18 20 15 13 12 10 7 2 357 350 344 340 336 329 323 316 313 310 309 307 302 302 300 292 289 285 293 297 284 291 283 284 284 281 288 292 291 291 291 289 289 289 290 288
6 6 5 3 359 354 354 352 349 343 338 335 335 331 326 322 318 316 314 312 305 312 314 294 294 294 303 304 297 289 271 276 287 292 294 295 293 291 292 294 293 291 290 287
350 351 351 344 342 338 339 340 338 332 329 333 332 328 326 327 320 318 317 314 317 320 316 317 296 306 320 299 285 285 285 289 293 293 292 291 291 291 291 291 292 292 290 287
347 345 343 338 332 328 327 326 330 329 329 336 334 327 330 325 315 316 318 324 320 320 316 297 305 305 306 287 287 290 292 292 292 290 291 292 291 290 290 291 294 296 293 289
331 331 328 322 318 313 312 321 327 321 313 320 325 330 330 319 310 297 303 312 317 323 306 304 308 304 299 288 292 295 295 294 294 296 296 293 291 292 291 288 287 289 290 286
324 324 320 316 317 310 310 314 319 318 312 309 314 323 323 314 309 309 301 306 307 307 314 316 308 303 306 312 310 306 301 298 299 304 300 299 295 293 292 291 290 289 290 288
327 325 323 320 313 303 306 316 322 317 318 309 314 325 325 321 317 309 302 302 299 303 308 310 309 307 314 314 311 310 306 302 301 300 302 300 299 299 298 294 292 293 292 287
326 327 319 318 316 314 318 325 307 312 313 318 324 331 319 317 317 316 313 313 309 302 306 304 305 301 315 317 316 313 311 307 303 301 302 304 302 301 296 294 299 306 300 291